period_start,C,m1,H,J0,J1,J2,J3,J4,J5,JA,JB,JC,JD,JJ,JK,JN,#
2017-01-28 00:03:13,0.21,11.27,0.00,20.41,23.82,27.55,14.60,54.07,1005.86,2039.93,1189.49,1326.09,1487.01,600.11,595.09,34.40,0000 0000 0000 0000 000000
2017-01-28 00:08:14,0.21,11.28,0.00,20.41,23.82,27.51,14.64,54.26,1005.74,2039.82,1188.42,1325.38,1486.11,600.23,595.10,34.45,0000 0000 0000 0000 000000
2017-01-28 00:13:15,0.15,11.28,0.00,20.42,23.84,27.53,14.59,54.18,1005.70,2039.40,1187.33,1324.53,1485.20,599.87,594.69,34.50,0000 0000 0000 0000 000000
2017-01-28 00:18:17,0.17,11.29,0.00,20.43,23.85,27.51,14.60,54.01,1005.78,2039.30,1186.27,1323.93,1484.34,599.94,594.88,34.55,0000 0000 0000 0000 000000
2017-01-28 00:23:18,0.18,11.30,0.00,20.44,23.87,27.56,14.61,54.02,1005.71,2039.15,1185.28,1323.10,1483.56,600.39,595.26,34.60,0000 0000 0000 0000 000000
2017-01-28 00:28:20,0.21,11.31,0.00,20.46,23.87,27.57,14.60,53.98,1005.43,2039.09,1184.24,1322.49,1482.71,600.02,594.64,34.65,0000 0000 0000 0000 000000
2017-01-28 00:33:21,0.15,11.32,0.00,20.47,23.88,27.60,14.53,54.10,1005.39,2039.04,1183.20,1321.81,1481.91,599.66,594.21,34.70,0000 0000 0000 0000 000000
2017-01-28 00:38:23,0.21,11.33,0.00,20.52,23.90,27.65,14.61,53.99,1005.38,2039.02,1182.14,1321.03,1481.03,599.92,594.36,34.75,0000 0000 0000 0000 000000
2017-01-28 00:43:24,0.23,11.34,0.00,20.54,23.90,27.62,14.63,54.52,1005.39,2039.02,1181.08,1320.25,1480.10,600.45,594.81,34.80,0000 0000 0000 0000 000000
2017-01-28 00:48:25,0.19,11.35,0.00,20.58,23.92,27.61,14.57,54.45,1005.39,2039.00,1180.02,1319.72,1479.21,599.82,594.11,34.85,0000 0000 0000 0000 000000
2017-01-28 00:53:27,0.19,11.36,0.00,20.62,23.92,27.59,14.57,54.39,1005.19,2039.00,1178.92,1319.00,1478.38,600.15,594.25,34.90,0000 0000 0000 0000 000000
2017-01-28 00:58:28,0.26,11.37,0.00,20.65,23.95,27.66,14.57,54.33,1004.91,2039.00,1177.82,1318.16,1477.50,600.04,593.89,34.95,0000 0000 0000 0000 000000
2017-01-28 01:03:29,0.21,11.38,0.00,20.66,23.96,27.65,14.51,54.47,1004.89,2038.99,1176.78,1317.44,1476.65,599.77,593.54,35.00,0000 0000 0000 0000 000000
2017-01-28 01:08:31,0.20,11.40,0.00,20.68,23.97,27.67,14.50,54.58,1004.89,2038.99,1175.74,1316.73,1475.71,599.64,593.51,35.06,0000 0000 0000 0000 000000
2017-01-28 01:13:32,0.19,11.41,0.00,20.69,23.99,27.69,14.58,54.48,1004.90,2038.98,1174.68,1315.97,1474.82,600.12,593.94,35.11,0000 0000 0000 0000 000000
2017-01-28 01:18:33,0.22,11.42,0.00,20.71,24.00,27.72,14.52,54.33,1004.91,2038.96,1173.63,1315.11,1473.95,599.60,593.42,35.16,0000 0000 0000 0000 000000
2017-01-28 01:23:34,0.21,11.43,0.00,20.73,24.02,27.75,14.61,54.52,1004.89,2038.93,1172.61,1314.46,1473.08,600.35,594.15,35.21,0000 0000 0000 0000 000000
2017-01-28 01:28:36,0.15,11.44,0.00,20.75,24.03,27.76,14.65,54.58,1004.90,2038.76,1171.58,1313.80,1472.20,599.84,593.51,35.26,0000 0000 0000 0000 000000
2017-01-28 01:33:37,0.21,11.45,0.00,20.76,24.05,27.75,14.56,54.37,1004.90,2038.67,1170.62,1313.03,1471.57,599.94,593.59,35.31,0000 0000 0000 0000 000000
2017-01-28 01:38:38,0.15,11.45,0.00,20.76,24.06,27.79,14.57,54.21,1004.90,2038.44,1169.60,1312.35,1470.86,600.07,593.66,35.36,0000 0000 0000 0000 000000
2017-01-28 01:43:39,0.17,11.46,0.00,20.77,24.07,27.80,14.58,54.51,1004.90,2038.22,1168.50,1311.67,1470.03,599.86,593.55,35.41,0000 0000 0000 0000 000000
2017-01-28 01:48:41,0.16,11.47,0.00,20.77,24.09,27.80,14.54,54.33,1004.90,2038.10,1167.59,1310.94,1469.14,599.79,593.46,35.46,0000 0000 0000 0000 000000
2017-01-28 01:53:42,0.23,11.48,0.00,20.77,24.10,27.81,14.57,54.29,1004.89,2038.06,1166.60,1310.08,1468.26,600.13,593.76,35.51,0000 0000 0000 0000 000000
2017-01-28 01:58:44,0.22,11.49,0.00,20.81,24.12,27.82,14.53,54.37,1004.88,2038.01,1165.55,1309.40,1467.50,599.82,593.36,35.56,0000 0000 0000 0000 000000
2017-01-28 02:03:45,0.14,11.50,0.00,20.80,24.12,27.88,14.58,54.34,1004.90,2038.01,1164.59,1308.82,1466.75,600.17,593.71,35.61,0000 0000 0000 0000 000000
2017-01-28 02:08:47,0.21,11.51,0.00,20.82,24.14,27.86,14.59,54.48,1004.54,2038.00,1163.57,1308.04,1465.91,599.96,593.26,35.66,0000 0000 0000 0000 000000
2017-01-28 02:13:48,0.21,11.52,0.00,20.82,24.15,27.87,14.62,54.33,1004.54,2038.00,1162.63,1307.33,1465.06,600.19,593.50,35.71,0000 0000 0000 0000 000000
2017-01-28 02:18:49,0.19,11.53,0.00,20.84,24.17,27.87,14.65,54.47,1004.53,2037.99,1161.60,1306.78,1464.22,600.26,593.60,35.76,0000 0000 0000 0000 000000
2017-01-28 02:23:50,0.20,11.55,0.00,20.85,24.17,27.89,14.56,54.54,1004.59,2037.99,1160.58,1306.00,1463.51,599.88,593.15,35.81,0000 0000 0000 0000 000000
2017-01-28 02:28:52,0.23,11.56,0.00,20.87,24.20,27.88,14.59,54.30,1004.88,2037.98,1159.58,1305.13,1462.62,600.12,593.61,35.86,0000 0000 0000 0000 000000
2017-01-28 02:33:53,0.22,11.56,0.00,20.86,24.21,27.94,14.55,54.52,1004.54,2037.96,1158.51,1304.42,1461.76,600.02,593.23,35.91,0000 0000 0000 0000 000000
2017-01-28 02:38:54,0.24,11.58,0.00,20.86,24.22,27.91,14.60,54.83,1004.38,2037.97,1157.22,1303.64,1460.77,600.23,593.38,35.97,0000 0000 0000 0000 000000
2017-01-28 02:43:56,0.16,11.59,0.00,20.87,24.23,27.95,14.54,54.79,1004.20,2037.97,1156.27,1302.98,1459.99,599.69,592.79,36.02,0000 0000 0000 0000 000000
2017-01-28 02:48:57,0.22,11.60,0.00,20.85,24.25,27.93,14.59,54.76,1003.99,2037.91,1155.22,1302.14,1459.12,599.75,592.69,36.07,0000 0000 0000 0000 000000
2017-01-28 02:53:58,0.23,11.61,0.00,20.83,24.25,27.90,14.57,54.83,1003.96,2037.90,1154.16,1301.46,1458.21,599.98,592.93,36.12,0000 0000 0000 0000 000000
2017-01-28 02:59:00,0.16,11.62,0.00,20.84,24.27,27.94,14.58,54.80,1003.95,2037.77,1153.25,1300.76,1457.35,599.76,592.72,36.17,0000 0000 0000 0000 000000
2017-01-28 03:04:01,0.17,11.63,0.00,20.84,24.27,28.02,14.58,54.72,1004.13,2037.51,1152.09,1300.00,1456.32,600.00,593.05,36.22,0000 0000 0000 0000 000000
2017-01-28 03:09:02,0.18,11.64,0.00,20.84,24.28,27.98,14.53,54.67,1004.41,2037.26,1151.10,1299.14,1455.59,599.92,593.24,36.27,0000 0000 0000 0000 000000
2017-01-28 03:14:04,0.22,11.65,0.00,20.85,24.30,27.96,14.56,54.57,1004.64,2037.14,1150.22,1298.37,1454.54,600.01,593.34,36.32,0000 0000 0000 0000 000000
2017-01-28 03:19:05,0.19,11.66,0.00,20.83,24.30,27.98,14.58,54.75,1004.89,2037.10,1149.16,1297.73,1453.72,600.09,593.59,36.37,0000 0000 0000 0000 000000
2017-01-28 03:24:06,0.18,11.67,0.00,20.85,24.30,27.93,14.60,54.51,1004.86,2037.06,1148.16,1297.01,1452.87,599.97,593.42,36.42,0000 0000 0000 0000 000000
2017-01-28 03:29:08,0.22,11.68,0.00,20.84,24.32,27.96,14.67,54.72,1004.52,2037.06,1147.15,1296.20,1452.01,600.15,593.41,36.47,0000 0000 0000 0000 000000
2017-01-28 03:34:09,0.23,11.69,0.00,20.83,24.32,27.92,14.52,54.73,1004.41,2037.06,1146.05,1295.51,1451.12,600.16,593.32,36.52,0000 0000 0000 0000 000000
2017-01-28 03:39:10,0.23,11.70,0.00,20.82,24.32,27.90,14.55,54.74,1004.28,2037.06,1144.90,1294.79,1450.21,600.06,593.26,36.57,0000 0000 0000 0000 000000
2017-01-28 03:44:12,0.21,11.72,0.00,20.81,24.32,27.96,14.53,54.86,1003.93,2037.03,1143.82,1294.01,1449.38,600.04,592.98,36.62,0000 0000 0000 0000 000000
2017-01-28 03:49:13,0.29,11.73,0.00,20.81,24.33,27.95,14.53,54.98,1003.82,2037.02,1142.36,1293.10,1448.36,599.64,592.62,36.67,0000 0000 0000 0000 000000
2017-01-28 03:54:14,0.22,11.74,0.00,20.80,24.34,27.94,14.56,54.90,1003.90,2037.01,1141.38,1292.35,1447.54,600.08,592.97,36.72,0000 0000 0000 0000 000000
2017-01-28 03:59:15,0.14,11.75,0.00,20.78,24.35,27.95,14.58,54.73,1004.35,2037.01,1140.54,1291.85,1446.78,599.96,593.22,36.77,0000 0000 0000 0000 000000
2017-01-28 04:04:17,0.20,11.76,0.00,20.77,24.35,27.92,14.61,54.61,1004.56,2037.01,1139.65,1291.05,1445.96,600.19,593.65,36.83,0000 0000 0000 0000 000000
2017-01-28 04:09:18,0.23,11.77,0.00,20.77,24.35,27.92,14.56,54.36,1004.89,2037.00,1138.68,1290.32,1445.10,599.78,593.39,36.88,0000 0000 0000 0000 000000
2017-01-28 04:14:20,0.21,11.78,0.00,20.78,24.35,27.89,14.57,54.41,1004.86,2037.00,1137.66,1289.72,1444.30,599.95,593.50,36.93,0000 0000 0000 0000 000000
2017-01-28 04:19:21,0.19,11.79,0.00,20.77,24.35,27.93,14.54,54.72,1004.63,2037.01,1136.63,1289.01,1443.53,599.83,593.37,36.98,0000 0000 0000 0000 000000
2017-01-28 04:24:23,0.23,11.80,0.00,20.78,24.35,27.93,14.54,54.47,1004.49,2037.00,1135.65,1288.18,1442.69,599.52,592.92,37.03,0000 0000 0000 0000 000000
2017-01-28 04:29:24,0.24,11.81,0.00,20.79,24.35,27.90,14.62,54.73,1004.41,2037.00,1134.40,1287.43,1441.78,600.04,593.28,37.08,0000 0000 0000 0000 000000
2017-01-28 04:34:25,0.19,11.83,0.00,20.79,24.35,27.85,14.51,54.63,1004.45,2037.00,1133.42,1286.76,1440.84,599.92,593.20,37.13,0000 0000 0000 0000 000000
2017-01-28 04:39:26,0.21,11.84,0.00,20.78,24.35,27.88,14.57,54.65,1004.43,2037.00,1132.23,1286.00,1439.94,600.07,593.36,37.18,0000 0000 0000 0000 000000
2017-01-28 04:44:27,0.25,11.85,0.00,20.79,24.35,27.90,14.54,54.84,1004.42,2037.00,1131.22,1285.17,1438.96,599.99,593.53,37.23,0000 0000 0000 0000 000000
2017-01-28 04:49:29,0.22,11.86,0.00,20.80,24.35,27.89,14.56,54.57,1004.59,2037.00,1130.13,1284.48,1438.05,600.22,593.64,37.28,0000 0000 0000 0000 000000
2017-01-28 04:54:30,0.27,11.87,0.00,20.82,24.35,27.91,14.56,54.79,1004.43,2037.00,1128.83,1283.69,1437.18,599.87,593.12,37.33,0000 0000 0000 0000 000000
2017-01-28 04:59:31,0.20,11.89,0.00,20.82,24.35,27.88,14.57,54.97,1004.40,2037.00,1127.74,1282.88,1436.25,599.93,593.19,37.38,0000 0000 0000 0000 000000
2017-01-28 05:04:33,0.23,11.90,0.00,20.82,24.35,27.92,14.53,54.88,1004.42,2037.00,1126.75,1282.04,1435.35,599.91,593.21,37.43,0000 0000 0000 0000 000000
2017-01-28 05:09:34,0.25,11.91,0.00,20.82,24.35,27.90,14.61,54.87,1004.42,2037.00,1125.73,1281.24,1434.55,599.98,593.21,37.48,0000 0000 0000 0000 000000
2017-01-28 05:14:35,0.16,11.92,0.00,20.78,24.35,27.87,14.61,54.94,1004.35,2037.00,1124.75,1280.73,1433.80,600.22,593.50,37.53,0000 0000 0000 0000 000000
2017-01-28 05:19:36,0.21,11.93,0.00,20.76,24.35,27.88,14.56,54.83,1004.34,2037.00,1123.71,1279.97,1432.92,599.84,593.14,37.58,0000 0000 0000 0000 000000
2017-01-28 05:24:37,0.22,11.94,0.00,20.76,24.35,27.88,14.55,54.88,1004.29,2037.00,1122.79,1279.15,1432.06,599.95,593.22,37.63,0000 0000 0000 0000 000000
2017-01-28 05:29:39,0.26,11.95,0.00,20.75,24.35,27.92,14.52,55.01,1004.19,2037.00,1121.63,1278.60,1431.24,600.02,593.25,37.68,0000 0000 0000 0000 000000
2017-01-28 05:34:40,0.20,11.97,0.00,20.74,24.35,27.90,14.63,55.09,1004.08,2037.01,1120.48,1277.87,1430.29,599.97,593.24,37.73,0000 0000 0000 0000 000000
2017-01-28 05:39:42,0.22,11.97,0.00,20.72,24.35,27.88,14.56,55.06,1004.28,2037.01,1119.61,1277.05,1429.53,599.89,593.21,37.79,0000 0000 0000 0000 000000
2017-01-28 05:44:43,0.25,11.99,0.00,20.71,24.34,27.92,14.50,54.92,1004.36,2037.00,1118.44,1276.24,1428.63,599.69,593.03,37.84,0000 0000 0000 0000 000000
2017-01-28 05:49:44,0.26,12.00,0.00,20.71,24.34,27.86,14.62,55.17,1004.34,2037.01,1117.22,1275.30,1427.60,599.81,593.20,37.89,0000 0000 0000 0000 000000
2017-01-28 05:54:46,0.23,12.01,0.00,20.70,24.33,27.86,14.60,55.16,1004.43,2037.01,1116.22,1274.58,1426.65,600.01,593.51,37.94,0000 0000 0000 0000 000000
2017-01-28 05:59:47,0.15,12.02,0.00,20.70,24.32,27.83,14.60,55.03,1004.81,2037.00,1115.32,1273.97,1425.87,600.09,593.81,37.99,0000 0000 0000 0000 000000
2017-01-28 06:04:48,0.23,12.04,0.00,20.70,24.32,27.91,14.55,54.85,1004.91,2037.00,1114.46,1273.18,1425.05,599.89,593.61,38.04,0000 0000 0000 0000 000000
2017-01-28 06:09:49,0.22,12.04,0.00,20.69,24.32,27.86,14.61,54.70,1004.91,2037.00,1113.51,1272.61,1424.32,600.11,593.82,38.09,0000 0000 0000 0000 000000
2017-01-28 06:14:51,0.17,12.05,0.00,20.69,24.32,27.86,14.52,54.59,1005.18,2037.00,1112.54,1271.97,1423.57,599.91,593.87,38.14,0000 0000 0000 0000 000000
2017-01-28 06:19:52,0.22,12.06,0.00,20.66,24.31,27.83,14.62,54.58,1005.33,2037.01,1111.59,1271.17,1422.81,599.98,594.25,38.19,0000 0000 0000 0000 000000
2017-01-28 06:24:53,0.23,12.07,0.00,20.66,24.30,27.83,14.64,54.76,1005.27,2037.00,1110.48,1270.53,1421.94,599.90,593.95,38.24,0000 0000 0000 0000 000000
2017-01-28 06:29:54,0.17,12.09,0.00,20.66,24.30,27.82,14.57,54.65,1005.06,2037.00,1109.47,1269.96,1421.09,600.14,594.13,38.29,0000 0000 0000 0000 000000
2017-01-28 06:34:56,0.24,12.10,0.00,20.64,24.30,27.82,14.49,54.90,1004.89,2037.00,1108.55,1269.16,1420.29,599.63,593.51,38.34,0000 0000 0000 0000 000000
2017-01-28 06:39:57,0.24,12.11,0.00,20.68,24.30,27.81,14.64,54.92,1004.78,2037.00,1107.49,1268.42,1419.52,600.30,594.17,38.39,0000 0000 0000 0000 000000
2017-01-28 06:44:58,0.20,12.12,0.00,20.69,24.30,27.77,14.57,54.88,1004.54,2037.00,1106.44,1267.75,1418.71,600.11,593.80,38.44,0000 0000 0000 0000 000000
2017-01-28 06:49:59,0.19,12.13,0.00,20.70,24.29,27.80,14.67,54.90,1004.57,2037.00,1105.47,1267.02,1417.90,599.98,593.48,38.49,0000 0000 0000 0000 000000
2017-01-28 06:55:00,0.25,12.15,0.00,20.69,24.29,27.78,14.67,54.81,1004.60,2037.00,1104.41,1266.22,1417.03,600.51,593.99,38.54,0000 0000 0000 0000 000000
2017-01-28 07:00:02,0.24,12.15,0.00,20.69,24.28,27.80,14.56,55.05,1004.43,2037.00,1103.37,1265.53,1416.16,599.84,593.35,38.59,0000 0000 0000 0000 000000
2017-01-28 07:05:03,0.20,12.17,0.00,20.72,24.28,27.76,14.59,55.22,1004.46,2037.01,1102.02,1264.92,1415.32,599.97,593.44,38.65,0000 0000 0000 0000 000000
2017-01-28 07:10:04,0.28,12.18,0.00,20.70,24.27,27.77,14.54,55.17,1004.42,2037.00,1100.85,1264.08,1414.46,599.76,593.24,38.70,0000 0000 0000 0000 000000
2017-01-28 07:15:05,0.19,12.19,0.00,20.68,24.27,27.80,14.61,55.32,1004.40,2037.01,1099.90,1263.52,1413.66,600.29,593.80,38.75,0000 0000 0000 0000 000000
2017-01-28 07:20:07,0.14,12.20,0.00,20.66,24.27,27.80,14.57,54.92,1004.46,2037.01,1099.01,1262.99,1412.96,600.00,593.71,38.80,0000 0000 0000 0000 000000
2017-01-28 07:25:08,0.37,12.22,0.00,20.66,24.27,27.82,14.51,55.42,1004.10,2037.03,1097.50,1262.17,1412.07,599.55,592.96,38.85,0000 0000 0000 0000 000000
2017-01-28 07:30:10,0.25,12.23,0.00,20.65,24.27,27.83,14.58,55.42,1004.15,2037.03,1096.32,1261.40,1411.23,599.91,593.30,38.90,0000 0000 0000 0000 000000
2017-01-28 07:35:11,0.14,12.24,0.00,20.63,24.27,27.85,14.56,55.13,1004.47,2037.01,1095.78,1260.76,1410.18,600.05,593.64,38.95,0000 0000 0000 0000 000000
2017-01-28 07:40:13,0.26,12.25,0.00,20.61,24.27,27.82,14.53,55.05,1004.50,2037.00,1094.63,1259.92,1409.41,599.83,593.58,39.00,0000 0000 0000 0000 000000
2017-01-28 07:45:14,0.23,12.26,0.00,20.62,24.27,27.81,14.64,55.18,1004.39,2037.02,1093.71,1259.05,1408.30,600.03,593.64,39.05,0000 0000 0000 0000 000000
2017-01-28 07:50:15,0.18,12.27,0.00,20.60,24.27,27.83,14.65,55.23,1004.29,2037.02,1092.81,1258.42,1407.79,600.13,593.70,39.10,0000 0000 0000 0000 000000
2017-01-28 07:55:17,0.18,12.28,0.00,20.59,24.27,27.77,14.56,55.18,1004.39,2037.02,1091.85,1257.83,1406.99,599.87,593.61,39.15,0000 0000 0000 0000 000000
2017-01-28 08:00:18,0.22,12.29,0.00,20.59,24.25,27.81,14.64,54.99,1004.40,2037.00,1090.87,1257.03,1406.09,600.25,593.93,39.20,0000 0000 0000 0000 000000
2017-01-28 08:05:19,0.28,12.31,0.00,20.58,24.25,27.80,14.62,55.02,1004.40,2037.03,1089.82,1256.28,1405.18,599.64,593.42,39.25,0000 0000 0000 0000 000000
2017-01-28 08:10:21,0.19,12.31,0.00,20.57,24.25,27.77,14.62,54.88,1004.37,2037.03,1088.85,1255.70,1404.38,600.16,593.93,39.30,0000 0000 0000 0000 000000
2017-01-28 08:15:23,0.30,12.33,0.00,20.56,24.24,27.78,14.63,55.28,1004.04,2037.07,1087.42,1254.86,1403.50,600.21,593.66,39.35,0000 0000 0000 0000 000000
2017-01-28 08:20:24,0.16,12.34,0.00,20.55,24.23,27.78,14.59,55.29,1004.21,2037.09,1086.76,1254.03,1402.68,600.29,593.99,39.40,0000 0000 0000 0000 000000
2017-01-28 08:25:25,0.29,12.36,0.00,20.53,24.22,27.74,14.56,55.56,1004.21,2037.26,1085.31,1253.17,1401.86,599.94,593.59,39.45,0000 0000 0000 0000 000000
2017-01-28 08:30:26,0.19,12.36,0.00,20.51,24.22,27.74,14.55,55.15,1004.22,2037.16,1084.77,1252.57,1401.02,600.00,593.81,39.50,0000 0000 0000 0000 000000
2017-01-28 08:35:27,0.18,12.38,0.00,20.49,24.22,27.75,14.57,55.19,1004.23,2037.20,1083.85,1251.92,1400.17,599.94,593.79,39.56,0000 0000 0000 0000 000000
2017-01-28 08:40:29,0.27,12.39,0.00,20.47,24.20,27.74,14.58,55.02,1004.41,2037.20,1082.79,1251.11,1399.44,599.93,593.97,39.61,0000 0000 0000 0000 000000
2017-01-28 08:45:30,0.30,12.40,0.00,20.48,24.20,27.72,14.57,55.00,1004.81,2037.42,1081.71,1250.49,1398.64,599.95,594.10,39.66,0000 0000 0000 0000 000000
2017-01-28 08:50:31,0.12,12.41,0.00,20.48,24.19,27.66,14.56,54.92,1004.93,2037.61,1080.97,1249.95,1397.95,600.13,594.40,39.71,0000 0000 0000 0000 000000
2017-01-28 08:55:33,0.23,12.42,0.00,20.47,24.17,27.67,14.58,54.97,1004.99,2037.58,1080.09,1249.15,1397.09,599.66,593.96,39.76,0000 0000 0000 0000 000000
2017-01-28 09:00:34,0.25,12.43,0.00,20.47,24.17,27.69,14.62,54.92,1005.03,2037.82,1079.21,1248.66,1396.36,599.93,594.25,39.81,0000 0000 0000 0000 000000
2017-01-28 09:05:35,0.19,12.44,0.00,20.46,24.17,27.70,14.61,54.72,1005.05,2037.90,1078.25,1248.02,1395.70,600.06,594.51,39.86,0000 0000 0000 0000 000000
2017-01-28 09:10:37,0.18,12.45,0.00,20.46,24.15,27.69,14.56,54.87,1004.90,2037.72,1077.31,1247.29,1394.93,599.70,594.00,39.91,0000 0000 0000 0000 000000
2017-01-28 09:15:38,0.23,12.46,0.00,20.47,24.15,27.64,14.59,54.80,1004.91,2037.90,1076.54,1246.79,1394.14,599.87,594.15,39.96,0000 0000 0000 0000 000000
2017-01-28 09:20:40,0.22,12.47,0.00,20.47,24.15,27.65,14.59,54.91,1004.83,2037.93,1075.51,1246.04,1393.51,599.97,594.20,40.01,0000 0000 0000 0000 000000
2017-01-28 09:25:41,0.19,12.48,0.00,20.47,24.14,27.64,14.63,54.93,1004.70,2037.96,1074.66,1245.47,1392.85,599.82,593.93,40.06,0000 0000 0000 0000 000000
2017-01-28 09:30:42,0.26,12.50,0.00,20.50,24.13,27.63,14.59,55.02,1004.43,2037.95,1073.53,1244.70,1391.91,600.10,593.96,40.11,0000 0000 0000 0000 000000
2017-01-28 09:35:44,0.19,12.51,0.00,20.49,24.12,27.66,14.62,55.04,1004.71,2037.97,1072.61,1244.01,1391.06,600.16,594.03,40.16,0000 0000 0000 0000 000000
2017-01-28 09:40:45,0.23,12.52,0.00,20.48,24.12,27.63,14.57,54.94,1004.84,2037.97,1071.70,1243.38,1390.22,599.99,594.21,40.21,0000 0000 0000 0000 000000
2017-01-28 09:45:46,0.21,12.53,0.00,20.50,24.12,27.67,14.61,55.09,1004.43,2037.98,1070.62,1242.80,1389.55,599.92,593.87,40.26,0000 0000 0000 0000 000000
2017-01-28 09:50:48,0.23,12.54,0.00,20.50,24.12,27.61,14.56,55.02,1004.41,2037.98,1069.59,1242.00,1388.60,599.88,593.73,40.31,0000 0000 0000 0000 000000
2017-01-28 09:55:49,0.25,12.56,0.00,20.50,24.11,27.62,14.51,55.13,1004.41,2037.98,1068.47,1241.16,1387.87,599.60,593.54,40.36,0000 0000 0000 0000 000000
2017-01-28 10:00:50,0.23,12.56,0.00,20.50,24.10,27.66,14.56,55.24,1004.40,2037.98,1067.45,1240.56,1387.02,600.05,593.96,40.42,0000 0000 0000 0000 000000
2017-01-28 10:05:52,0.17,12.58,0.00,20.50,24.10,27.62,14.59,55.29,1004.40,2037.98,1066.59,1239.99,1386.16,599.99,593.90,40.47,0000 0000 0000 0000 000000
2017-01-28 10:10:53,0.26,12.59,0.00,20.50,24.10,27.64,14.57,55.20,1004.44,2037.98,1065.62,1239.22,1385.42,599.85,593.82,40.52,0000 0000 0000 0000 000000
2017-01-28 10:15:55,0.18,12.60,0.00,20.50,24.10,27.62,14.57,55.17,1004.83,2037.99,1064.76,1238.63,1384.71,599.92,594.11,40.57,0000 0000 0000 0000 000000
2017-01-28 10:20:56,0.16,12.61,0.00,20.50,24.10,27.63,14.59,55.13,1004.90,2037.98,1063.84,1237.95,1383.91,600.21,594.39,40.62,0000 0000 0000 0000 000000
2017-01-28 10:25:57,0.25,12.62,0.00,20.48,24.10,27.62,14.52,54.99,1004.91,2037.98,1062.89,1237.12,1383.06,599.75,594.08,40.67,0000 0000 0000 0000 000000
2017-01-28 10:30:59,0.22,12.63,0.00,20.49,24.10,27.63,14.56,54.97,1004.93,2037.99,1061.96,1236.60,1382.25,600.06,594.22,40.72,0000 0000 0000 0000 000000
2017-01-28 10:36:00,0.18,12.64,0.00,20.50,24.09,27.62,14.57,55.00,1005.08,2037.99,1061.02,1235.97,1381.51,600.07,594.39,40.77,0000 0000 0000 0000 000000
2017-01-28 10:41:01,0.23,12.66,0.00,20.49,24.08,27.68,14.63,55.08,1005.31,2037.99,1060.08,1235.16,1380.84,599.99,594.42,40.82,0000 0000 0000 0000 000000
2017-01-28 10:46:03,0.20,12.66,0.00,20.49,24.07,27.62,14.54,54.77,1005.29,2037.99,1059.22,1234.71,1380.05,599.83,594.11,40.87,0000 0000 0000 0000 000000
2017-01-28 10:51:04,0.21,12.68,0.00,20.49,24.07,27.61,14.59,54.84,1005.00,2037.99,1058.25,1234.01,1379.21,600.17,594.46,40.92,0000 0000 0000 0000 000000
2017-01-28 10:56:05,0.26,12.69,0.00,20.50,24.07,27.62,14.53,54.81,1005.09,2037.99,1057.29,1233.19,1378.42,599.87,594.11,40.97,0000 0000 0000 0000 000000
2017-01-28 11:01:07,0.21,12.70,0.00,20.49,24.07,27.61,14.60,54.89,1005.01,2037.99,1056.34,1232.63,1377.68,599.93,594.25,41.02,0000 0000 0000 0000 000000
2017-01-28 11:06:08,0.18,12.71,0.00,20.52,24.07,27.56,14.56,54.63,1005.08,2037.99,1055.38,1231.98,1376.85,599.81,594.10,41.07,0000 0000 0000 0000 000000
2017-01-28 11:11:10,0.25,12.72,0.00,20.54,24.07,27.60,14.55,54.78,1004.92,2037.99,1054.32,1231.16,1376.04,600.07,594.08,41.12,0000 0000 0000 0000 000000
2017-01-28 11:16:11,0.25,12.73,0.00,20.54,24.07,27.60,14.64,54.69,1005.26,2037.99,1053.31,1230.49,1375.19,599.94,594.24,41.17,0000 0000 0000 0000 000000
2017-01-28 11:21:12,0.20,12.74,0.00,20.56,24.07,27.60,14.51,54.47,1005.40,2037.99,1052.42,1229.88,1374.34,599.56,594.00,41.22,0000 0000 0000 0000 000000
2017-01-28 11:26:13,0.23,12.76,0.00,20.57,24.07,27.61,14.60,54.48,1005.35,2037.99,1051.47,1229.08,1373.61,599.88,594.28,41.28,0000 0000 0000 0000 000000
2017-01-28 11:31:14,0.22,12.77,0.00,20.60,24.07,27.61,14.66,54.78,1005.08,2037.99,1050.51,1228.44,1372.87,600.13,594.22,41.33,0000 0000 0000 0000 000000
2017-01-28 11:36:16,0.19,12.78,0.00,20.65,24.07,27.60,14.49,54.78,1005.00,2037.98,1049.48,1227.85,1372.03,599.84,593.70,41.38,0000 0000 0000 0000 000000
2017-01-28 11:41:17,0.24,12.79,0.00,20.67,24.08,27.66,14.53,54.72,1005.29,2037.99,1048.60,1227.05,1371.16,599.94,593.88,41.43,0000 0000 0000 0000 000000
2017-01-28 11:46:19,0.27,12.80,0.00,20.71,24.09,27.72,14.59,54.82,1005.39,2037.98,1047.47,1226.18,1370.23,599.78,593.85,41.48,0000 0000 0000 0000 000000
2017-01-28 11:51:20,0.24,12.81,0.00,20.72,24.10,27.73,14.57,54.77,1005.60,2037.98,1046.54,1225.61,1369.41,599.83,594.00,41.53,0000 0000 0000 0000 000000
2017-01-28 11:56:21,0.17,12.82,0.00,20.74,24.10,27.73,14.62,54.74,1005.85,2037.99,1045.64,1224.97,1368.66,600.08,594.26,41.58,0000 0000 0000 0000 000000
2017-01-28 12:01:22,0.21,12.84,0.00,20.76,24.12,27.76,14.60,54.71,1005.81,2037.94,1044.70,1224.15,1367.92,600.16,594.35,41.63,0000 0000 0000 0000 000000
2017-01-28 12:06:24,0.22,12.85,0.00,20.78,24.12,27.84,14.63,54.76,1005.75,2037.97,1043.80,1223.60,1367.08,600.49,594.60,41.68,0000 0000 0000 0000 000000
2017-01-28 12:11:25,0.16,12.86,0.00,20.82,24.14,27.82,14.60,54.77,1005.83,2037.90,1042.88,1222.97,1366.22,600.01,594.15,41.73,0000 0000 0000 0000 000000
2017-01-28 12:16:26,0.22,12.87,0.00,20.84,24.15,27.85,14.60,54.88,1005.81,2037.71,1041.91,1222.13,1365.50,599.94,594.07,41.78,0000 0000 0000 0000 000000
2017-01-28 12:21:28,0.19,12.88,0.00,20.87,24.17,27.90,14.54,54.81,1005.78,2037.48,1041.02,1221.56,1364.80,600.06,594.02,41.83,0000 0000 0000 0000 000000
2017-01-28 12:26:29,0.12,12.89,0.00,20.90,24.18,27.94,14.62,54.79,1005.86,2037.19,1040.06,1220.94,1363.96,599.92,593.86,41.88,0000 0000 0000 0000 000000
2017-01-28 12:31:31,0.26,12.90,0.00,20.90,24.20,27.92,14.58,54.91,1005.86,2037.15,1039.10,1220.12,1363.11,599.95,593.97,41.93,0000 0000 0000 0000 000000
2017-01-28 12:36:32,0.24,12.91,0.00,20.91,24.22,27.98,14.65,55.20,1005.46,2037.04,1038.12,1219.44,1362.27,600.20,593.83,41.98,0000 0000 0000 0000 000000
2017-01-28 12:41:33,0.19,12.92,0.00,20.93,24.23,27.99,14.54,55.12,1005.37,2037.02,1037.14,1218.85,1361.47,600.36,593.93,42.03,0000 0000 0000 0000 000000
2017-01-28 12:46:34,0.23,12.93,0.00,20.94,24.25,28.01,14.58,55.01,1005.35,2037.01,1036.13,1218.06,1360.77,600.29,593.83,42.08,0000 0000 0000 0000 000000
2017-01-28 12:51:35,0.24,12.94,0.00,20.96,24.26,28.01,14.56,54.84,1005.40,2037.00,1035.24,1217.36,1359.96,599.56,593.11,42.13,0000 0000 0000 0000 000000